Location: Adrasan
(36.3319°N, 30.4314°E)
Time: 21:48:53
(UTC+00:00)

Lacrosse 4 Rocket - Visible Passes

Search period start: 27 May 2024 00:00
Search period end: 06 June 2024 00:00
Orbit: 530 x 592 km, 68.0° (Epoch: 26 May)

Date Brightness Start Highest point End Pass type
(mag) Time Alt. Az. Time Alt. Az. Time Alt. Az.
27 May 2.6 20:21:19 10° NNW 20:24:00 40° NNW 20:24:00 40° NNW visible
28 May 3.8 18:44:35 10° NE 18:45:28 11° NE 18:46:20 10° ENE visible
28 May 2.6 20:20:03 10° NNW 20:22:48 40° NW 20:22:48 40° NW visible
29 May 3.5 18:42:02 10° NNE 18:44:20 14° NE 18:45:41 13° ENE visible
29 May 2.7 20:18:51 10° NW 20:21:37 35° WNW 20:21:37 35° WNW visible
30 May 3.2 18:40:07 10° N 18:43:09 19° NE 18:44:32 17° E visible
30 May 3.0 20:17:44 10° NW 20:20:27 29° W 20:20:27 29° W visible
31 May 2.7 18:38:25 10° N 18:41:56 26° ENE 18:43:25 21° E visible
31 May 3.3 20:16:46 10° NW 20:19:20 22° W 20:19:20 22° W visible
01 Jun 2.2 18:36:51 10° N 18:40:40 36° ENE 18:42:20 26° ESE visible
01 Jun 3.7 20:16:01 10° WNW 20:18:15 16° W 20:18:15 16° W visible
02 Jun 1.7 18:35:20 10° NNW 18:39:23 51° ENE 18:41:17 28° SE visible
02 Jun 4.0 20:15:50 10° W 20:17:11 11° WSW 20:17:13 11° WSW visible
03 Jun 1.3 18:33:54 10° NNW 18:38:03 75° ENE 18:40:17 27° SE visible
04 Jun 1.4 18:32:33 10° NNW 18:36:42 76° WSW 18:39:20 22° SSE visible
05 Jun 2.0 18:31:15 10° NW 18:35:18 52° WSW 18:38:26 16° S visible
